Time,TemperatureF,DewpointF,PressureIn,WindDirection,WindDirectionDegrees,WindSpeedMPH,WindSpeedGustMPH,Humidity,HourlyPrecipIn,Conditions,Clouds,dailyrainin,SoftwareType,DateUTC
2013-06-20 00:01:00,65.3,63.8,30.09,WNW,300,0.0,1.0,95,0.00,,---,0.00,VWS V14.01,2013-06-20 04:01:00,
2013-06-20 00:06:00,65.1,63.6,30.09,WNW,300,0.0,0.0,95,0.00,,---,0.00,VWS V14.01,2013-06-20 04:06:00,
2013-06-20 00:11:00,65.0,63.5,30.09,WNW,300,0.0,0.0,95,0.00,,---,0.00,VWS V14.01,2013-06-20 04:11:00,
2013-06-20 00:16:00,64.9,63.4,30.09,WNW,300,0.0,0.0,95,0.00,,---,0.00,VWS V14.01,2013-06-20 04:16:00,
2013-06-20 00:21:00,64.7,63.2,30.10,WNW,300,0.0,0.0,95,0.00,,---,0.00,VWS V14.01,2013-06-20 04:21:00,
2013-06-20 00:26:00,64.6,63.1,30.10,WNW,300,0.0,0.0,95,0.00,,---,0.00,VWS V14.01,2013-06-20 04:26:00,
2013-06-20 00:31:00,64.6,63.1,30.10,WNW,300,0.0,0.0,95,0.00,,---,0.00,VWS V14.01,2013-06-20 04:31:00,
2013-06-20 00:36:00,64.6,63.4,30.10,NW,304,0.0,0.0,96,0.00,,---,0.00,VWS V14.01,2013-06-20 04:36:00,
2013-06-20 00:41:00,64.6,63.4,30.10,NW,304,0.0,0.0,96,0.00,,---,0.00,VWS V14.01,2013-06-20 04:41:00,
2013-06-20 00:46:00,64.6,63.4,30.10,NW,304,0.0,0.0,96,0.00,,---,0.00,VWS V14.01,2013-06-20 04:46:00,
2013-06-20 00:51:00,64.6,63.4,30.10,NW,304,0.0,0.0,96,0.00,,---,0.00,VWS V14.01,2013-06-20 04:51:00,
2013-06-20 00:56:00,64.6,63.4,30.10,NW,304,0.0,0.0,96,0.00,,---,0.00,VWS V14.01,2013-06-20 04:56:00,
2013-06-20 01:01:00,64.6,63.4,30.10,NW,304,0.0,0.0,96,0.00,,---,0.00,VWS V14.01,2013-06-20 05:01:00,
2013-06-20 01:06:00,64.6,63.4,30.10,NW,304,0.0,0.0,96,0.00,,---,0.00,VWS V14.01,2013-06-20 05:06:00,
2013-06-20 01:11:00,64.7,63.5,30.10,NW,304,0.0,0.0,96,0.00,,---,0.00,VWS V14.01,2013-06-20 05:11:00,
2013-06-20 01:16:00,64.7,63.5,30.10,NW,304,0.0,0.0,96,0.00,,---,0.00,VWS V14.01,2013-06-20 05:16:00,
2013-06-20 01:21:00,64.7,63.5,30.10,NW,304,0.0,0.0,96,0.00,,---,0.00,VWS V14.01,2013-06-20 05:21:00,
2013-06-20 01:26:00,64.7,63.5,30.11,NW,304,0.0,0.0,96,0.00,,---,0.00,VWS V14.01,2013-06-20 05:26:00,
2013-06-20 01:31:00,64.7,63.5,30.11,NW,304,0.0,1.0,96,0.00,,---,0.00,VWS V14.01,2013-06-20 05:31:00,
2013-06-20 01:36:00,64.7,63.5,30.11,NW,304,0.0,0.0,96,0.00,,---,0.00,VWS V14.01,2013-06-20 05:36:00,
2013-06-20 01:41:00,64.7,63.5,30.10,NW,304,0.0,0.0,96,0.00,,---,0.00,VWS V14.01,2013-06-20 05:41:00,
2013-06-20 01:46:00,64.8,63.6,30.10,NW,304,0.0,0.0,96,0.00,,---,0.00,VWS V14.01,2013-06-20 05:46:00,
2013-06-20 01:51:00,64.9,63.7,30.10,NW,304,0.0,0.0,96,0.00,,---,0.00,VWS V14.01,2013-06-20 05:51:00,
2013-06-20 01:56:00,64.9,63.7,30.10,NW,304,0.0,0.0,96,0.00,,---,0.00,VWS V14.01,2013-06-20 05:56:00,
2013-06-20 02:01:00,64.9,63.7,30.10,NW,304,0.0,0.0,96,0.00,,---,0.00,VWS V14.01,2013-06-20 06:01:00,
2013-06-20 02:06:00,64.9,63.7,30.11,NW,304,0.0,0.0,96,0.00,,---,0.00,VWS V14.01,2013-06-20 06:06:00,
2013-06-20 02:11:00,65.0,63.8,30.11,NW,304,0.0,0.0,96,0.00,,---,0.00,VWS V14.01,2013-06-20 06:11:00,
2013-06-20 02:16:00,65.1,63.9,30.11,NW,304,0.0,0.0,96,0.00,,---,0.00,VWS V14.01,2013-06-20 06:16:00,
2013-06-20 02:21:00,65.1,63.9,30.10,NW,304,0.0,0.0,96,0.00,,---,0.00,VWS V14.01,2013-06-20 06:21:00,
2013-06-20 02:26:00,65.1,63.9,30.10,NW,304,0.0,0.0,96,0.00,,---,0.00,VWS V14.01,2013-06-20 06:26:00,
2013-06-20 02:31:00,65.2,64.0,30.10,NW,304,0.0,0.0,96,0.00,,---,0.00,VWS V14.01,2013-06-20 06:31:00,
2013-06-20 02:36:00,65.3,64.1,30.10,NW,304,0.0,0.0,96,0.00,,---,0.00,VWS V14.01,2013-06-20 06:36:00,
2013-06-20 02:41:00,65.4,64.2,30.10,West,279,0.0,0.0,96,0.00,,---,0.00,VWS V14.01,2013-06-20 06:41:00,
2013-06-20 02:46:00,65.5,64.3,30.10,WSW,254,0.0,1.0,96,0.00,,---,0.00,VWS V14.01,2013-06-20 06:46:00,
2013-06-20 02:51:00,65.6,64.4,30.10,WSW,254,0.0,1.0,96,0.00,,---,0.00,VWS V14.01,2013-06-20 06:51:00,
2013-06-20 02:56:00,65.6,64.4,30.10,WSW,254,0.0,1.0,96,0.00,,---,0.00,VWS V14.01,2013-06-20 06:56:00,
2013-06-20 03:01:00,65.5,64.3,30.10,WSW,254,0.0,1.0,96,0.00,,---,0.00,VWS V14.01,2013-06-20 07:01:00,
2013-06-20 03:06:00,65.4,64.2,30.10,WSW,254,0.0,0.0,96,0.00,,---,0.00,VWS V14.01,2013-06-20 07:06:00,
2013-06-20 03:11:00,65.4,64.2,30.10,WSW,254,0.0,0.0,96,0.00,,---,0.00,VWS V14.01,2013-06-20 07:11:00,
2013-06-20 03:16:00,65.3,64.1,30.11,WSW,254,0.0,0.0,96,0.00,,---,0.00,VWS V14.01,2013-06-20 07:16:00,
2013-06-20 03:21:00,65.4,64.2,30.11,West,274,0.0,1.0,96,0.00,,---,0.00,VWS V14.01,2013-06-20 07:21:00,
2013-06-20 03:26:00,65.4,64.2,30.11,West,274,0.0,1.0,96,0.00,,---,0.00,VWS V14.01,2013-06-20 07:26:00,
2013-06-20 03:31:00,65.4,64.2,30.11,West,274,0.0,1.0,96,0.00,,---,0.00,VWS V14.01,2013-06-20 07:31:00,
2013-06-20 03:36:00,65.4,64.2,30.11,West,274,0.0,0.0,96,0.00,,---,0.00,VWS V14.01,2013-06-20 07:36:00,
2013-06-20 03:41:00,65.4,64.2,30.11,West,274,0.0,0.0,96,0.00,,---,0.00,VWS V14.01,2013-06-20 07:41:00,
2013-06-20 03:46:00,65.4,64.2,30.11,West,274,0.0,0.0,96,0.00,,---,0.00,VWS V14.01,2013-06-20 07:46:00,
2013-06-20 03:51:00,65.5,64.3,30.11,West,274,0.0,0.0,96,0.00,,---,0.00,VWS V14.01,2013-06-20 07:51:00,
2013-06-20 03:56:00,65.7,64.5,30.11,West,274,0.0,0.0,96,0.00,,---,0.00,VWS V14.01,2013-06-20 07:56:00,
2013-06-20 04:01:00,65.7,64.5,30.11,West,274,0.0,0.0,96,0.00,,---,0.00,VWS V14.01,2013-06-20 08:01:00,
2013-06-20 04:06:00,65.7,64.5,30.11,West,276,0.0,0.0,96,0.00,,---,0.00,VWS V14.01,2013-06-20 08:06:00,
2013-06-20 04:11:00,65.6,64.4,30.11,West,276,0.0,0.0,96,0.00,,---,0.00,VWS V14.01,2013-06-20 08:11:00,
2013-06-20 04:16:00,65.6,64.4,30.11,West,276,0.0,0.0,96,0.00,,---,0.00,VWS V14.01,2013-06-20 08:16:00,
2013-06-20 04:21:00,65.6,64.4,30.11,West,276,0.0,0.0,96,0.00,,---,0.00,VWS V14.01,2013-06-20 08:21:00,
2013-06-20 04:26:00,65.4,64.2,30.11,West,276,0.0,0.0,96,0.00,,---,0.00,VWS V14.01,2013-06-20 08:26:00,
2013-06-20 04:31:00,65.3,64.1,30.12,West,276,0.0,0.0,96,0.00,,---,0.00,VWS V14.01,2013-06-20 08:31:00,
2013-06-20 04:36:00,65.2,64.0,30.12,West,276,0.0,0.0,96,0.00,,---,0.00,VWS V14.01,2013-06-20 08:36:00,
2013-06-20 04:41:00,65.2,64.0,30.12,West,276,0.0,0.0,96,0.00,,---,0.00,VWS V14.01,2013-06-20 08:41:00,
2013-06-20 04:46:00,65.2,64.0,30.12,West,276,0.0,0.0,96,0.00,,---,0.00,VWS V14.01,2013-06-20 08:46:00,
2013-06-20 04:51:00,65.2,64.0,30.12,West,276,0.0,0.0,96,0.00,,---,0.00,VWS V14.01,2013-06-20 08:51:00,
2013-06-20 04:56:00,65.1,63.9,30.12,West,276,0.0,0.0,96,0.00,,---,0.00,VWS V14.01,2013-06-20 08:56:00,
2013-06-20 05:01:00,65.1,63.9,30.12,West,276,0.0,0.0,96,0.00,,---,0.00,VWS V14.01,2013-06-20 09:01:00,
2013-06-20 05:06:00,65.2,64.0,30.12,West,276,0.0,0.0,96,0.00,,---,0.00,VWS V14.01,2013-06-20 09:06:00,
2013-06-20 05:11:00,65.2,64.0,30.12,West,276,0.0,0.0,96,0.00,,---,0.00,VWS V14.01,2013-06-20 09:11:00,
2013-06-20 05:16:00,65.2,64.0,30.12,West,276,0.0,0.0,96,0.00,,---,0.00,VWS V14.01,2013-06-20 09:16:00,
2013-06-20 05:21:00,65.2,64.0,30.13,West,276,0.0,0.0,96,0.00,,---,0.00,VWS V14.01,2013-06-20 09:21:00,
2013-06-20 05:26:00,65.2,64.3,30.13,West,276,0.0,0.0,97,0.00,,---,0.00,VWS V14.01,2013-06-20 09:26:00,
2013-06-20 05:31:00,65.2,64.0,30.13,West,276,0.0,0.0,96,0.00,,---,0.00,VWS V14.01,2013-06-20 09:31:00,
2013-06-20 05:36:00,65.2,64.0,30.13,West,276,0.0,0.0,96,0.00,,---,0.00,VWS V14.01,2013-06-20 09:36:00,
2013-06-20 05:41:00,65.2,64.3,30.13,West,276,0.0,0.0,97,0.00,,---,0.00,VWS V14.01,2013-06-20 09:41:00,
2013-06-20 05:46:00,65.3,64.4,30.14,West,276,0.0,0.0,97,0.00,,---,0.00,VWS V14.01,2013-06-20 09:46:00,
2013-06-20 05:51:00,65.2,64.3,30.14,West,276,0.0,0.0,97,0.00,,---,0.00,VWS V14.01,2013-06-20 09:51:00,
2013-06-20 05:56:00,65.3,64.4,30.14,West,276,0.0,0.0,97,0.00,,---,0.00,VWS V14.01,2013-06-20 09:56:00,
2013-06-20 06:01:00,65.3,64.4,30.14,West,276,0.0,0.0,97,0.00,,---,0.00,VWS V14.01,2013-06-20 10:01:00,
2013-06-20 06:06:00,65.3,64.4,30.14,West,276,0.0,0.0,97,0.00,,---,0.00,VWS V14.01,2013-06-20 10:06:00,
2013-06-20 06:11:00,65.3,64.4,30.14,West,276,0.0,0.0,97,0.00,,---,0.00,VWS V14.01,2013-06-20 10:11:00,
2013-06-20 06:16:00,65.4,64.5,30.14,West,276,0.0,0.0,97,0.00,,---,0.00,VWS V14.01,2013-06-20 10:16:00,
2013-06-20 06:21:00,65.4,64.5,30.14,West,276,0.0,0.0,97,0.00,,---,0.00,VWS V14.01,2013-06-20 10:21:00,
2013-06-20 06:26:00,65.4,64.5,30.14,West,279,0.0,0.0,97,0.00,,---,0.00,VWS V14.01,2013-06-20 10:26:00,
2013-06-20 06:31:00,65.4,64.5,30.15,West,279,0.0,0.0,97,0.00,,---,0.00,VWS V14.01,2013-06-20 10:31:00,
2013-06-20 06:36:00,65.4,64.5,30.15,West,279,0.0,0.0,97,0.00,,---,0.00,VWS V14.01,2013-06-20 10:36:00,
2013-06-20 06:41:00,65.5,64.6,30.15,West,279,0.0,0.0,97,0.00,,---,0.00,VWS V14.01,2013-06-20 10:41:00,
2013-06-20 06:46:00,65.6,64.7,30.15,West,279,0.0,0.0,97,0.00,,---,0.00,VWS V14.01,2013-06-20 10:46:00,
2013-06-20 06:51:00,65.7,64.8,30.15,West,279,0.0,0.0,97,0.00,,---,0.00,VWS V14.01,2013-06-20 10:51:00,
2013-06-20 06:56:00,65.8,64.9,30.15,West,279,0.0,0.0,97,0.00,,---,0.00,VWS V14.01,2013-06-20 10:56:00,
2013-06-20 07:01:00,65.9,65.0,30.15,North,4,0.0,0.0,97,0.00,,---,0.00,VWS V14.01,2013-06-20 11:01:00,
2013-06-20 07:06:00,66.0,65.1,30.15,NE,38,0.0,0.0,97,0.00,,---,0.00,VWS V14.01,2013-06-20 11:06:00,
2013-06-20 07:11:00,66.0,65.1,30.15,NE,38,0.0,0.0,97,0.00,,---,0.00,VWS V14.01,2013-06-20 11:11:00,
2013-06-20 07:16:00,66.1,65.2,30.16,East,94,0.0,1.0,97,0.00,,---,0.00,VWS V14.01,2013-06-20 11:16:00,
2013-06-20 07:21:00,66.0,65.1,30.16,East,94,0.0,1.0,97,0.00,,---,0.00,VWS V14.01,2013-06-20 11:21:00,
2013-06-20 07:26:00,66.0,65.1,30.16,East,94,0.0,1.0,97,0.00,,---,0.00,VWS V14.01,2013-06-20 11:26:00,
2013-06-20 07:31:00,65.9,64.7,30.16,East,94,0.0,1.0,96,0.00,,---,0.00,VWS V14.01,2013-06-20 11:31:00,
2013-06-20 07:36:00,65.9,64.7,30.16,East,92,0.0,1.0,96,0.00,,---,0.00,VWS V14.01,2013-06-20 11:36:00,
2013-06-20 07:41:00,65.9,64.7,30.17,ESE,104,0.0,1.0,96,0.00,,---,0.00,VWS V14.01,2013-06-20 11:41:00,
2013-06-20 07:46:00,66.0,64.8,30.17,ESE,104,0.0,1.0,96,0.00,,---,0.00,VWS V14.01,2013-06-20 11:46:00,
2013-06-20 07:51:00,66.0,64.8,30.17,ESE,104,0.0,1.0,96,0.00,,---,0.00,VWS V14.01,2013-06-20 11:51:00,
2013-06-20 07:56:00,66.0,64.8,30.17,ESE,122,0.0,1.0,96,0.00,,---,0.00,VWS V14.01,2013-06-20 11:56:00,
2013-06-20 08:01:00,66.1,64.9,30.17,ESE,122,0.0,1.0,96,0.00,,---,0.00,VWS V14.01,2013-06-20 12:01:00,
2013-06-20 08:06:00,66.1,64.9,30.17,ESE,106,0.0,1.0,96,0.00,,---,0.00,VWS V14.01,2013-06-20 12:06:00,
2013-06-20 08:11:00,66.1,64.9,30.17,SE,125,0.0,2.0,96,0.00,,---,0.00,VWS V14.01,2013-06-20 12:11:00,
2013-06-20 08:16:00,66.1,64.9,30.18,ESE,123,0.0,2.0,96,0.00,,---,0.00,VWS V14.01,2013-06-20 12:16:00,
2013-06-20 08:21:00,66.1,64.9,30.18,ESE,123,0.0,2.0,96,0.00,,---,0.00,VWS V14.01,2013-06-20 12:21:00,
2013-06-20 08:26:00,66.1,64.9,30.18,SE,124,0.0,2.0,96,0.00,,---,0.00,VWS V14.01,2013-06-20 12:26:00,
2013-06-20 08:31:00,66.1,64.9,30.18,NE,45,0.0,2.0,96,0.00,,---,0.00,VWS V14.01,2013-06-20 12:31:00,
2013-06-20 08:36:00,66.1,64.9,30.18,SE,127,1.0,4.0,96,0.00,,---,0.00,VWS V14.01,2013-06-20 12:36:00,
2013-06-20 08:41:00,66.1,64.6,30.18,SE,132,0.0,4.0,95,0.00,,---,0.00,VWS V14.01,2013-06-20 12:41:00,
2013-06-20 08:46:00,66.2,64.7,30.18,ESE,103,0.0,4.0,95,0.00,,---,0.00,VWS V14.01,2013-06-20 12:46:00,
2013-06-20 08:51:00,66.2,64.7,30.19,ESE,102,0.0,4.0,95,0.00,,---,0.00,VWS V14.01,2013-06-20 12:51:00,
2013-06-20 08:56:00,66.3,65.1,30.19,SE,132,0.0,4.0,96,0.00,,---,0.00,VWS V14.01,2013-06-20 12:56:00,
2013-06-20 09:01:00,66.4,65.2,30.19,ESE,119,0.0,4.0,96,0.00,,---,0.00,VWS V14.01,2013-06-20 13:01:00,
2013-06-20 09:06:00,66.6,65.1,30.19,SE,131,0.0,2.0,95,0.00,,---,0.00,VWS V14.01,2013-06-20 13:06:00,
2013-06-20 09:11:00,66.7,65.2,30.19,SE,146,0.0,2.0,95,0.00,,---,0.00,VWS V14.01,2013-06-20 13:11:00,
2013-06-20 09:16:00,66.9,65.4,30.19,South,179,1.0,2.0,95,0.00,,---,0.00,VWS V14.01,2013-06-20 13:16:00,
2013-06-20 09:21:00,67.0,65.2,30.19,ESE,123,2.0,4.0,94,0.00,,---,0.00,VWS V14.01,2013-06-20 13:21:00,
2013-06-20 09:26:00,67.2,65.4,30.19,SE,130,1.0,4.0,94,0.00,,---,0.00,VWS V14.01,2013-06-20 13:26:00,
2013-06-20 09:31:00,67.3,65.5,30.19,South,178,1.0,5.0,94,0.00,,---,0.00,VWS V14.01,2013-06-20 13:31:00,
2013-06-20 09:36:00,67.5,65.7,30.19,SE,133,0.0,5.0,94,0.00,,---,0.00,VWS V14.01,2013-06-20 13:36:00,
2013-06-20 09:41:00,67.7,65.6,30.19,SE,131,2.0,6.0,93,0.00,,---,0.00,VWS V14.01,2013-06-20 13:41:00,
2013-06-20 09:46:00,67.9,65.8,30.19,SSE,167,0.0,6.0,93,0.00,,---,0.00,VWS V14.01,2013-06-20 13:46:00,
2013-06-20 09:51:00,68.1,66.0,30.20,ESE,122,2.0,6.0,93,0.00,,---,0.00,VWS V14.01,2013-06-20 13:51:00,
2013-06-20 09:56:00,68.1,65.7,30.19,ESE,111,0.0,6.0,92,0.00,,---,0.00,VWS V14.01,2013-06-20 13:56:00,
2013-06-20 10:01:00,68.1,65.7,30.19,East,98,0.0,6.0,92,0.00,,---,0.00,VWS V14.01,2013-06-20 14:01:00,
2013-06-20 10:06:00,68.1,65.7,30.19,ESE,102,0.0,2.0,92,0.00,,---,0.00,VWS V14.01,2013-06-20 14:06:00,
2013-06-20 10:11:00,68.3,66.2,30.19,East,99,0.0,4.0,93,0.00,,---,0.00,VWS V14.01,2013-06-20 14:11:00,
2013-06-20 10:16:00,68.4,66.3,30.19,ESE,107,0.0,4.0,93,0.00,,---,0.00,VWS V14.01,2013-06-20 14:16:00,
2013-06-20 10:21:00,68.5,66.4,30.19,SE,127,4.0,4.0,93,0.00,,---,0.00,VWS V14.01,2013-06-20 14:21:00,
2013-06-20 10:26:00,68.4,66.0,30.20,ESE,118,0.0,4.0,92,0.00,,---,0.00,VWS V14.01,2013-06-20 14:26:00,
2013-06-20 10:31:00,68.4,66.0,30.20,East,98,0.0,4.0,92,0.00,,---,0.00,VWS V14.01,2013-06-20 14:31:00,
2013-06-20 10:36:00,68.4,66.0,30.20,East,98,0.0,1.0,92,0.00,,---,0.00,VWS V14.01,2013-06-20 14:36:00,
2013-06-20 10:41:00,68.3,65.6,30.20,ENE,67,0.0,2.0,91,0.00,,---,0.00,VWS V14.01,2013-06-20 14:41:00,
2013-06-20 10:46:00,68.3,65.9,30.20,East,88,0.0,2.0,92,0.00,,---,0.00,VWS V14.01,2013-06-20 14:46:00,
2013-06-20 10:51:00,68.3,65.9,30.20,ESE,104,0.0,2.0,92,0.00,,---,0.00,VWS V14.01,2013-06-20 14:51:00,
2013-06-20 10:56:00,68.3,66.0,30.20,SSE,162,0.0,-999.0,92,-99.99,,,0.00,weatherlink.com 1.10,2013-06-20 14:56:00,
2013-06-20 11:01:00,68.2,65.5,30.20,East,92,0.0,4.0,91,0.00,,---,0.00,VWS V14.01,2013-06-20 15:01:00,
2013-06-20 11:06:00,68.1,65.4,30.21,SE,125,1.0,1.0,91,0.00,,---,0.00,VWS V14.01,2013-06-20 15:06:00,
2013-06-20 11:11:00,68.1,65.4,30.21,ESE,119,1.0,2.0,91,0.00,,---,0.00,VWS V14.01,2013-06-20 15:11:00,
2013-06-20 11:16:00,68.2,65.5,30.21,ENE,65,0.0,5.0,91,0.00,,---,0.00,VWS V14.01,2013-06-20 15:16:00,
2013-06-20 11:21:00,68.3,65.6,30.21,SSE,148,2.0,5.0,91,0.00,,---,0.00,VWS V14.01,2013-06-20 15:21:00,
2013-06-20 11:26:00,68.3,65.6,30.21,SSE,159,0.0,5.0,91,0.00,,---,0.00,VWS V14.01,2013-06-20 15:26:00,
2013-06-20 11:31:00,68.5,65.8,30.21,East,86,0.0,5.0,91,0.00,,---,0.00,VWS V14.01,2013-06-20 15:31:00,
2013-06-20 11:36:00,68.6,65.9,30.21,NNE,17,0.0,1.0,91,0.00,,---,0.00,VWS V14.01,2013-06-20 15:36:00,
2013-06-20 11:41:00,68.6,65.6,30.20,ESE,117,0.0,4.0,90,0.00,,---,0.00,VWS V14.01,2013-06-20 15:41:00,
2013-06-20 11:46:00,68.7,66.3,30.20,ESE,113,0.0,4.0,92,0.00,,---,0.00,VWS V14.01,2013-06-20 15:46:00,
2013-06-20 11:51:00,68.9,66.2,30.21,ESE,111,0.0,4.0,91,0.00,,---,0.00,VWS V14.01,2013-06-20 15:51:00,
2013-06-20 11:56:00,69.6,67.2,30.21,ESE,108,0.0,4.0,92,0.00,,---,0.00,VWS V14.01,2013-06-20 15:56:00,
2013-06-20 12:01:00,70.0,66.3,30.21,East,99,0.0,4.0,88,0.00,,---,0.00,VWS V14.01,2013-06-20 16:01:00,
2013-06-20 12:06:00,70.4,66.7,30.21,East,92,0.0,4.0,88,0.00,,---,0.00,VWS V14.01,2013-06-20 16:06:00,
2013-06-20 12:11:00,70.8,65.4,30.21,East,94,1.0,4.0,83,0.00,,---,0.00,VWS V14.01,2013-06-20 16:11:00,
2013-06-20 12:16:00,71.2,66.1,30.21,East,88,1.0,5.0,84,0.00,,---,0.00,VWS V14.01,2013-06-20 16:16:00,
2013-06-20 12:21:00,71.7,66.3,30.21,ESE,103,0.0,5.0,83,0.00,,---,0.00,VWS V14.01,2013-06-20 16:21:00,
2013-06-20 12:26:00,71.8,66.0,30.21,SE,141,1.0,5.0,82,0.00,,---,0.00,VWS V14.01,2013-06-20 16:26:00,
2013-06-20 12:31:00,71.7,65.9,30.20,South,183,1.0,5.0,82,0.00,,---,0.00,VWS V14.01,2013-06-20 16:31:00,
2013-06-20 12:36:00,72.1,65.9,30.21,WNW,290,1.0,3.0,81,0.00,,---,0.00,VWS V14.01,2013-06-20 16:36:00,
2013-06-20 12:41:00,72.4,65.9,30.21,South,170,0.0,3.0,80,0.00,,---,0.00,VWS V14.01,2013-06-20 16:41:00,
2013-06-20 12:46:00,72.9,68.1,30.21,East,96,1.0,3.0,85,0.00,,---,0.00,VWS V14.01,2013-06-20 16:46:00,
2013-06-20 12:51:00,73.3,66.4,30.21,East,96,1.0,4.0,79,0.00,,---,0.00,VWS V14.01,2013-06-20 16:51:00,
2013-06-20 12:56:00,73.5,67.3,30.21,SE,131,0.0,4.0,81,0.00,,---,0.00,VWS V14.01,2013-06-20 16:56:00,
2013-06-20 13:01:00,73.5,66.2,30.20,SSE,150,1.0,4.0,78,0.00,,---,0.00,VWS V14.01,2013-06-20 17:01:00,
2013-06-20 13:06:00,73.5,65.9,30.21,SSW,212,0.0,4.0,77,0.00,,---,0.00,VWS V14.01,2013-06-20 17:06:00,
2013-06-20 13:11:00,73.7,65.3,30.21,East,83,0.0,4.0,75,0.00,,---,0.00,VWS V14.01,2013-06-20 17:11:00,
2013-06-20 13:16:00,73.8,66.2,30.20,SE,125,0.0,5.0,77,0.00,,---,0.00,VWS V14.01,2013-06-20 17:16:00,
2013-06-20 13:21:00,74.0,66.7,30.20,East,92,2.0,5.0,78,0.00,,---,0.00,VWS V14.01,2013-06-20 17:21:00,
2013-06-20 13:26:00,74.4,67.1,30.20,ENE,74,2.0,5.0,78,0.00,,---,0.00,VWS V14.01,2013-06-20 17:26:00,
2013-06-20 13:31:00,74.8,66.7,30.20,ESE,121,0.0,6.0,76,0.00,,---,0.00,VWS V14.01,2013-06-20 17:31:00,
2013-06-20 13:36:00,74.7,67.0,30.20,ESE,111,1.0,2.0,77,0.00,,---,0.00,VWS V14.01,2013-06-20 17:36:00,
2013-06-20 13:41:00,74.4,66.7,30.20,East,100,0.0,2.0,77,0.00,,---,0.00,VWS V14.01,2013-06-20 17:41:00,
2013-06-20 13:46:00,74.5,66.8,30.20,ENE,77,2.0,4.0,77,0.00,,---,0.00,VWS V14.01,2013-06-20 17:46:00,
2013-06-20 13:51:00,74.6,67.3,30.19,SSE,151,0.0,5.0,78,0.00,,---,0.00,VWS V14.01,2013-06-20 17:51:00,
2013-06-20 13:56:00,74.4,66.0,30.19,East,83,0.0,5.0,75,0.00,,---,0.00,VWS V14.01,2013-06-20 17:56:00,
2013-06-20 14:01:00,74.1,66.1,30.19,East,89,0.0,5.0,76,0.00,,---,0.00,VWS V14.01,2013-06-20 18:01:00,
2013-06-20 14:06:00,74.2,66.9,30.19,East,86,0.0,4.0,78,0.00,,---,0.00,VWS V14.01,2013-06-20 18:06:00,
2013-06-20 14:11:00,74.7,67.4,30.19,ESE,111,0.0,4.0,78,0.00,,---,0.00,VWS V14.01,2013-06-20 18:11:00,
2013-06-20 14:16:00,75.1,66.6,30.19,ENE,72,0.0,5.0,75,0.00,,---,0.00,VWS V14.01,2013-06-20 18:16:00,
2013-06-20 14:21:00,74.9,67.2,30.19,SSW,194,6.0,6.0,77,0.00,,---,0.00,VWS V14.01,2013-06-20 18:21:00,
2013-06-20 14:26:00,74.6,65.8,30.18,SE,126,0.0,6.0,74,0.00,,---,0.00,VWS V14.01,2013-06-20 18:26:00,
2013-06-20 14:31:00,75.0,68.1,30.18,ESE,117,0.0,6.0,79,0.00,,---,0.00,VWS V14.01,2013-06-20 18:31:00,
2013-06-20 14:36:00,75.4,66.5,30.18,SE,131,2.0,6.0,74,0.00,,---,0.00,VWS V14.01,2013-06-20 18:36:00,
2013-06-20 14:41:00,75.6,69.0,30.18,ENE,71,0.0,6.0,80,0.00,,---,0.00,VWS V14.01,2013-06-20 18:41:00,
2013-06-20 14:46:00,76.0,67.9,30.18,South,185,6.0,6.0,76,0.00,,---,0.00,VWS V14.01,2013-06-20 18:46:00,
2013-06-20 14:51:00,76.1,67.6,30.18,SE,127,2.0,8.0,75,0.00,,---,0.00,VWS V14.01,2013-06-20 18:51:00,
2013-06-20 14:56:00,76.3,69.3,30.18,SE,129,4.0,8.0,79,0.00,,---,0.00,VWS V14.01,2013-06-20 18:56:00,
2013-06-20 15:01:00,76.6,68.5,30.18,South,171,4.0,8.0,76,0.00,,---,0.00,VWS V14.01,2013-06-20 19:01:00,
2013-06-20 15:06:00,76.7,68.2,30.18,SSE,167,1.0,6.0,75,0.00,,---,0.00,VWS V14.01,2013-06-20 19:06:00,
2013-06-20 15:11:00,76.3,66.6,30.18,SSE,152,6.0,7.0,72,0.00,,---,0.00,VWS V14.01,2013-06-20 19:11:00,
2013-06-20 15:16:00,76.2,68.8,30.18,ESE,120,0.0,7.0,78,0.00,,---,0.00,VWS V14.01,2013-06-20 19:16:00,
2013-06-20 15:21:00,76.5,68.8,30.17,SE,137,0.0,7.0,77,0.00,,---,0.00,VWS V14.01,2013-06-20 19:21:00,
2013-06-20 15:26:00,76.7,67.0,30.17,ESE,120,0.0,7.0,72,0.00,,---,0.00,VWS V14.01,2013-06-20 19:26:00,
2013-06-20 15:31:00,76.6,66.9,30.17,ESE,104,0.0,7.0,72,0.00,,---,0.00,VWS V14.01,2013-06-20 19:31:00,
2013-06-20 15:36:00,76.7,68.2,30.17,East,96,0.0,1.0,75,0.00,,---,0.00,VWS V14.01,2013-06-20 19:36:00,
2013-06-20 15:41:00,76.7,67.4,30.17,ESE,117,1.0,3.0,73,0.00,,---,0.00,VWS V14.01,2013-06-20 19:41:00,
2013-06-20 15:46:00,76.1,66.8,30.17,ESE,111,1.0,4.0,73,0.00,,---,0.00,VWS V14.01,2013-06-20 19:46:00,
2013-06-20 15:51:00,75.7,66.8,30.17,ESE,115,0.0,4.0,74,0.00,,---,0.00,VWS V14.01,2013-06-20 19:51:00,
2013-06-20 15:56:00,75.7,67.6,30.17,SSE,162,0.0,4.0,76,0.00,,---,0.00,VWS V14.01,2013-06-20 19:56:00,
2013-06-20 16:01:00,75.7,66.8,30.17,East,91,0.0,4.0,74,0.00,,---,0.00,VWS V14.01,2013-06-20 20:01:00,
2013-06-20 16:06:00,75.8,67.3,30.17,East,97,4.0,4.0,75,0.00,,---,0.00,VWS V14.01,2013-06-20 20:06:00,
2013-06-20 16:11:00,76.1,67.6,30.16,East,93,2.0,4.0,75,0.00,,---,0.00,VWS V14.01,2013-06-20 20:11:00,
2013-06-20 16:16:00,76.3,67.0,30.17,SSE,154,0.0,5.0,73,0.00,,---,0.00,VWS V14.01,2013-06-20 20:16:00,
2013-06-20 16:21:00,76.5,67.2,30.16,ESE,114,0.0,5.0,73,0.00,,---,0.00,VWS V14.01,2013-06-20 20:21:00,
2013-06-20 16:26:00,76.5,67.6,30.16,SE,130,0.0,5.0,74,0.00,,---,0.00,VWS V14.01,2013-06-20 20:26:00,
2013-06-20 16:31:00,76.8,67.9,30.16,ESE,115,1.0,5.0,74,0.00,,---,0.00,VWS V14.01,2013-06-20 20:31:00,
2013-06-20 16:36:00,77.2,67.1,30.16,East,90,2.0,4.0,71,0.00,,---,0.00,VWS V14.01,2013-06-20 20:36:00,
2013-06-20 16:41:00,77.4,67.7,30.16,ESE,118,1.0,4.0,72,0.00,,---,0.00,VWS V14.01,2013-06-20 20:41:00,
2013-06-20 16:46:00,77.6,68.7,30.16,SE,138,0.0,4.0,74,0.00,,---,0.00,VWS V14.01,2013-06-20 20:46:00,
2013-06-20 16:51:00,77.6,67.9,30.16,East,99,0.0,4.0,72,0.00,,---,0.00,VWS V14.01,2013-06-20 20:51:00,
2013-06-20 16:56:00,77.4,67.7,30.16,East,83,0.0,4.0,72,0.00,,---,0.00,VWS V14.01,2013-06-20 20:56:00,
2013-06-20 17:01:00,77.3,67.2,30.16,ESE,117,0.0,4.0,71,0.00,,---,0.00,VWS V14.01,2013-06-20 21:01:00,
2013-06-20 17:06:00,77.2,67.5,30.16,ESE,102,0.0,1.0,72,0.00,,---,0.00,VWS V14.01,2013-06-20 21:06:00,
2013-06-20 17:11:00,77.0,66.9,30.15,SE,143,0.0,2.0,71,0.00,,---,0.00,VWS V14.01,2013-06-20 21:11:00,
2013-06-20 17:16:00,76.8,67.5,30.15,SE,144,1.0,2.0,73,0.00,,---,0.00,VWS V14.01,2013-06-20 21:16:00,
2013-06-20 17:21:00,76.8,67.1,30.15,SE,135,0.0,2.0,72,0.00,,---,0.00,VWS V14.01,2013-06-20 21:21:00,
2013-06-20 17:26:00,76.9,67.6,30.15,East,94,0.0,2.0,73,0.00,,---,0.00,VWS V14.01,2013-06-20 21:26:00,
2013-06-20 17:31:00,76.9,66.8,30.15,ESE,105,0.0,2.0,71,0.00,,---,0.00,VWS V14.01,2013-06-20 21:31:00,
2013-06-20 17:36:00,76.7,67.0,30.15,South,184,0.0,1.0,72,0.00,,---,0.00,VWS V14.01,2013-06-20 21:36:00,
2013-06-20 17:41:00,76.6,66.9,30.15,ESE,104,0.0,2.0,72,0.00,,---,0.00,VWS V14.01,2013-06-20 21:41:00,
2013-06-20 17:46:00,76.4,66.3,30.15,SSE,156,0.0,2.0,71,0.00,,---,0.00,VWS V14.01,2013-06-20 21:46:00,
2013-06-20 17:51:00,76.2,66.9,30.15,SE,126,1.0,2.0,73,0.00,,---,0.00,VWS V14.01,2013-06-20 21:51:00,
2013-06-20 17:56:00,76.1,66.8,30.14,South,181,1.0,2.0,73,0.00,,---,0.00,VWS V14.01,2013-06-20 21:56:00,
2013-06-20 18:01:00,76.0,67.1,30.15,SE,144,0.0,2.0,74,0.00,,---,0.00,VWS V14.01,2013-06-20 22:01:00,
2013-06-20 18:06:00,76.0,66.7,30.15,SSE,156,0.0,2.0,73,0.00,,---,0.00,VWS V14.01,2013-06-20 22:06:00,
2013-06-20 18:11:00,76.1,67.2,30.15,South,179,0.0,2.0,74,0.00,,---,0.00,VWS V14.01,2013-06-20 22:11:00,
2013-06-20 18:16:00,76.1,67.2,30.15,SSE,162,0.0,2.0,74,0.00,,---,0.00,VWS V14.01,2013-06-20 22:16:00,
2013-06-20 18:21:00,76.2,67.3,30.15,SSE,150,0.0,4.0,74,0.00,,---,0.00,VWS V14.01,2013-06-20 22:21:00,
2013-06-20 18:26:00,76.2,67.3,30.15,South,179,0.0,4.0,74,0.00,,---,0.00,VWS V14.01,2013-06-20 22:26:00,
2013-06-20 18:31:00,76.4,67.5,30.15,East,92,1.0,4.0,74,0.00,,---,0.00,VWS V14.01,2013-06-20 22:31:00,
2013-06-20 18:36:00,76.5,66.8,30.15,SE,139,0.0,2.0,72,0.00,,---,0.00,VWS V14.01,2013-06-20 22:36:00,
2013-06-20 18:40:00,76.7,67.4,30.15,ESE,106,0.0,2.0,73,0.00,,---,0.00,VWS V14.01,2013-06-20 22:40:00,
2013-06-20 18:46:00,76.8,67.5,30.15,East,96,0.0,2.0,73,0.00,,---,0.00,VWS V14.01,2013-06-20 22:46:00,
2013-06-20 18:50:00,76.6,66.9,30.15,East,100,0.0,2.0,72,0.00,,---,0.00,VWS V14.01,2013-06-20 22:50:00,
2013-06-20 18:55:00,76.5,67.6,30.15,East,100,0.0,2.0,74,0.00,,---,0.00,VWS V14.01,2013-06-20 22:55:00,
2013-06-20 19:00:00,76.3,67.0,30.15,South,179,0.0,2.0,73,0.00,,---,0.00,VWS V14.01,2013-06-20 23:00:00,
2013-06-20 19:05:00,76.0,66.3,30.15,SE,131,0.0,2.0,72,0.00,,---,0.00,VWS V14.01,2013-06-20 23:05:00,
2013-06-20 19:10:00,75.5,66.6,30.15,SE,138,0.0,2.0,74,0.00,,---,0.00,VWS V14.01,2013-06-20 23:10:00,
2013-06-20 19:15:00,75.2,66.3,30.15,SE,138,0.0,2.0,74,0.00,,---,0.00,VWS V14.01,2013-06-20 23:15:00,
2013-06-20 19:20:00,75.1,66.6,30.15,SE,138,0.0,2.0,75,0.00,,---,0.00,VWS V14.01,2013-06-20 23:20:00,
2013-06-20 19:25:00,75.0,66.6,30.16,SE,138,0.0,2.0,75,0.00,,---,0.00,VWS V14.01,2013-06-20 23:25:00,
2013-06-20 19:30:00,75.0,66.9,30.16,SE,138,0.0,2.0,76,0.00,,---,0.00,VWS V14.01,2013-06-20 23:30:00,
2013-06-20 19:35:00,75.0,66.9,30.16,SE,138,0.0,0.0,76,0.00,,---,0.00,VWS V14.01,2013-06-20 23:35:00,
2013-06-20 19:40:00,75.1,67.0,30.16,SE,138,0.0,0.0,76,0.00,,---,0.00,VWS V14.01,2013-06-20 23:40:00,
2013-06-20 19:45:00,75.0,67.3,30.16,SE,138,0.0,0.0,77,0.00,,---,0.00,VWS V14.01,2013-06-20 23:45:00,
2013-06-20 19:50:00,74.9,67.2,30.16,SE,138,0.0,1.0,77,0.00,,---,0.00,VWS V14.01,2013-06-20 23:50:00,
2013-06-20 19:55:00,74.6,66.9,30.16,SE,138,0.0,1.0,77,0.00,,---,0.00,VWS V14.01,2013-06-20 23:55:00,
2013-06-20 20:00:00,74.4,66.7,30.16,SE,138,0.0,1.0,77,0.00,,---,0.00,VWS V14.01,2013-06-21 00:00:00,
2013-06-20 20:05:00,74.1,66.8,30.16,SE,138,0.0,0.0,78,0.00,,---,0.00,VWS V14.01,2013-06-21 00:05:00,
2013-06-20 20:10:00,74.0,67.4,30.16,SE,138,0.0,0.0,80,0.00,,---,0.00,VWS V14.01,2013-06-21 00:10:00,
2013-06-20 20:15:00,73.9,67.0,30.16,SE,138,0.0,0.0,79,0.00,,---,0.00,VWS V14.01,2013-06-21 00:15:00,
2013-06-20 20:20:00,73.6,67.1,30.16,SE,138,0.0,0.0,80,0.00,,---,0.00,VWS V14.01,2013-06-21 00:20:00,
2013-06-20 20:25:00,73.3,66.8,30.16,SE,138,0.0,0.0,80,0.00,,---,0.00,VWS V14.01,2013-06-21 00:25:00,
2013-06-20 20:30:00,73.1,66.6,30.17,SE,138,0.0,0.0,80,0.00,,---,0.00,VWS V14.01,2013-06-21 00:30:00,
2013-06-20 20:35:00,72.8,66.6,30.17,SE,138,0.0,0.0,81,0.00,,---,0.00,VWS V14.01,2013-06-21 00:35:00,
2013-06-20 20:40:00,72.6,66.4,30.16,SE,138,0.0,0.0,81,0.00,,---,0.00,VWS V14.01,2013-06-21 00:40:00,
2013-06-20 20:45:00,72.3,66.5,30.16,SE,138,0.0,0.0,82,0.00,,---,0.00,VWS V14.01,2013-06-21 00:45:00,
2013-06-20 20:50:00,72.0,66.6,30.16,SE,138,0.0,0.0,83,0.00,,---,0.00,VWS V14.01,2013-06-21 00:50:00,
2013-06-20 20:55:00,71.7,66.6,30.16,SE,138,0.0,0.0,84,0.00,,---,0.00,VWS V14.01,2013-06-21 00:55:00,
2013-06-20 21:00:00,71.4,66.3,30.16,SE,138,0.0,0.0,84,0.00,,---,0.00,VWS V14.01,2013-06-21 01:00:00,
2013-06-20 21:05:00,71.1,67.0,30.16,SE,138,0.0,0.0,87,0.00,,---,0.00,VWS V14.01,2013-06-21 01:05:00,
2013-06-20 21:10:00,70.7,66.7,30.16,SE,138,0.0,0.0,87,0.00,,---,0.00,VWS V14.01,2013-06-21 01:10:00,
2013-06-20 21:15:00,70.4,66.7,30.17,SE,138,0.0,0.0,88,0.00,,---,0.00,VWS V14.01,2013-06-21 01:15:00,
2013-06-20 21:20:00,70.1,66.4,30.17,SE,138,0.0,0.0,88,0.00,,---,0.00,VWS V14.01,2013-06-21 01:20:00,
2013-06-20 21:25:00,69.9,66.5,30.17,SE,138,0.0,0.0,89,0.00,,---,0.00,VWS V14.01,2013-06-21 01:25:00,
2013-06-20 21:30:00,69.7,66.3,30.17,SE,138,0.0,0.0,89,0.00,,---,0.00,VWS V14.01,2013-06-21 01:30:00,
2013-06-20 21:35:00,69.5,66.4,30.17,SE,138,0.0,0.0,90,0.00,,---,0.00,VWS V14.01,2013-06-21 01:35:00,
2013-06-20 21:40:00,69.4,66.3,30.17,SE,138,0.0,0.0,90,0.00,,---,0.00,VWS V14.01,2013-06-21 01:40:00,
2013-06-20 21:45:00,69.3,66.6,30.17,SE,138,0.0,0.0,91,0.00,,---,0.00,VWS V14.01,2013-06-21 01:45:00,
2013-06-20 21:50:00,69.2,66.5,30.17,SE,138,0.0,0.0,91,0.00,,---,0.00,VWS V14.01,2013-06-21 01:50:00,
2013-06-20 21:55:00,69.1,66.4,30.17,SE,138,0.0,0.0,91,0.00,,---,0.00,VWS V14.01,2013-06-21 01:55:00,
2013-06-20 22:00:00,69.1,66.7,30.18,SE,138,0.0,0.0,92,0.00,,---,0.00,VWS V14.01,2013-06-21 02:00:00,
2013-06-20 22:05:00,69.1,66.7,30.18,SE,138,0.0,0.0,92,0.00,,---,0.00,VWS V14.01,2013-06-21 02:05:00,
2013-06-20 22:10:00,69.0,66.6,30.18,SE,138,0.0,0.0,92,0.00,,---,0.00,VWS V14.01,2013-06-21 02:10:00,
2013-06-20 22:15:00,68.9,66.5,30.18,SE,138,0.0,0.0,92,0.00,,---,0.00,VWS V14.01,2013-06-21 02:15:00,
2013-06-20 22:20:00,68.8,66.7,30.18,SE,138,0.0,0.0,93,0.00,,---,0.00,VWS V14.01,2013-06-21 02:20:00,
2013-06-20 22:25:00,68.6,66.5,30.18,WSW,251,0.0,1.0,93,0.00,,---,0.00,VWS V14.01,2013-06-21 02:25:00,
2013-06-20 22:30:00,68.5,66.4,30.18,West,266,0.0,1.0,93,0.00,,---,0.00,VWS V14.01,2013-06-21 02:30:00,
2013-06-20 22:35:00,68.3,66.2,30.18,West,266,0.0,0.0,93,0.00,,---,0.00,VWS V14.01,2013-06-21 02:35:00,
2013-06-20 22:40:00,68.1,66.0,30.19,West,266,0.0,0.0,93,0.00,,---,0.00,VWS V14.01,2013-06-21 02:40:00,
2013-06-20 22:45:00,68.0,66.2,30.19,West,266,0.0,0.0,94,0.00,,---,0.00,VWS V14.01,2013-06-21 02:45:00,
2013-06-20 22:50:00,67.9,66.1,30.19,West,266,0.0,0.0,94,0.00,,---,0.00,VWS V14.01,2013-06-21 02:50:00,
2013-06-20 22:55:00,67.7,65.9,30.19,West,266,0.0,0.0,94,0.00,,---,0.00,VWS V14.01,2013-06-21 02:55:00,
2013-06-20 23:00:00,67.6,65.8,30.19,West,279,0.0,1.0,94,0.00,,---,0.00,VWS V14.01,2013-06-21 03:00:00,
2013-06-20 23:05:00,67.6,66.1,30.19,West,279,0.0,0.0,95,0.00,,---,0.00,VWS V14.01,2013-06-21 03:05:00,
2013-06-20 23:10:00,67.5,66.0,30.19,West,279,0.0,0.0,95,0.00,,---,0.00,VWS V14.01,2013-06-21 03:10:00,
2013-06-20 23:15:00,67.4,65.9,30.19,West,279,0.0,0.0,95,0.00,,---,0.00,VWS V14.01,2013-06-21 03:15:00,
2013-06-20 23:20:00,67.4,65.6,30.19,West,279,0.0,0.0,94,0.00,,---,0.00,VWS V14.01,2013-06-21 03:20:00,
2013-06-20 23:25:00,67.3,65.5,30.19,West,279,0.0,0.0,94,0.00,,---,0.00,VWS V14.01,2013-06-21 03:25:00,
2013-06-20 23:30:00,67.2,65.7,30.19,West,279,0.0,0.0,95,0.00,,---,0.00,VWS V14.01,2013-06-21 03:30:00,
2013-06-20 23:35:00,67.2,65.7,30.19,West,279,0.0,0.0,95,0.00,,---,0.00,VWS V14.01,2013-06-21 03:35:00,
2013-06-20 23:40:00,67.1,65.6,30.19,West,279,0.0,0.0,95,0.00,,---,0.00,VWS V14.01,2013-06-21 03:40:00,
2013-06-20 23:45:00,67.0,65.5,30.19,West,279,0.0,0.0,95,0.00,,---,0.00,VWS V14.01,2013-06-21 03:45:00,
2013-06-20 23:50:00,67.0,65.5,30.19,West,279,0.0,0.0,95,0.00,,---,0.00,VWS V14.01,2013-06-21 03:50:00,
2013-06-20 23:55:00,66.9,65.4,30.19,West,279,0.0,0.0,95,0.00,,---,0.00,VWS V14.01,2013-06-21 03:55:00,